Tracking 30402 objects as of 13-May-2025
HD Live streaming from Space Station
objects crossing your sky now

COSMOS 2539

Track COSMOS 2539 now!


NORAD ID: 44457
Int'l Code: 2019-048A
Perigee: 35,791.6 km
Apogee: 35,795.8 km
Inclination: 0.0 °
Period: 1,436.1 minutes
Semi major axis: 42164 km
RCS: Unknown
Launch date: August 5, 2019
Source: Commonwealth of Independent States (former USSR) (CIS)
Launch site: TYURATAM MISSILE AND SPACE COMPLEX (TTMTR)
Your satellite tracking list
Your tracking list is empty




NASA's NSSDC Master Catalog

Two Line Element Set (TLE):
1 44457U 19048A   25132.56899975  .00000097  00000-0  00000+0 0  9992
2 44457   0.0035  46.3005 0000499 156.2640 244.8566  1.00272012 21203
Source of the keplerian elements: AFSPC